Location: Tel Aviv
(32.0670°N, 34.7670°E)
Time: 13:08:06
(UTC+03:00)

Explorer 11/Cluster Stage 4 - Pass Details

Date: 18 September 2024
Orbit: 464 x 1208 km, 28.8° (Epoch: 05 October)

Event Time Altitude Azimuth Distance (km) Brightness Sun altitude
Rises 07:30:00 0° 261° (W) 3,416 9.2 12.5°
Reaches altitude 10° 07:32:23 10° 258° (WSW) 2,587 8.7 13.0°
Maximum altitude 07:38:44 68° 177° (S) 1,112 7.7 14.4°
Drops below altitude 10° 07:46:17 10° 96° (E) 3,051 12.5 15.9°
Sets 07:49:17 0° 94° (E) 4,066 12.0 16.6°
